Tracking 30115 objects as of 9-Feb-2025
HD Live streaming from Space Station
objects crossing your sky now

INTELSAT 2-F2 DEB *

Track INTELSAT 2-F2 DEB * now!


NORAD ID: 5987
Int'l Code: 1967-001S
Perigee: 450.3 km
Apogee: 28,462.2 km
Inclination: 26.7 °
Period: 498.5 minutes
Semi major axis: 20827 km
RCS: 0.3047 m2 (medium)
Launch date: January 11, 1967
Source: United States (US)
Launch site: AIR FORCE EASTERN TEST RANGE (AFETR)

Note: This is SATELLITE DEBRIS
Your satellite tracking list
Your tracking list is empty




NASA's NSSDC Master Catalog

Two Line Element Set (TLE):
1 05987U 67001S   25039.11524178  .00001577  00000-0  48314-2 0  9993
2 05987  26.7312  12.0928 6724820 269.1050  19.6768  2.88838465364479
Source of the keplerian elements: AFSPC